Wind_Speed
17 18 17 16 16 16 16 15 14 14 14 15 15 13 13 13 14 13 12 11 10 11 11 11 12 13 14 15 15 15 16 18 20 22 23 24 25 25 25 25 25 25 24
17 18 15 15 15 15 15 15 15 14 14 15 15 15 14 14 14 13 13 13 12 13 13 13 14 14 15 16 17 16 17 19 21 23 24 25 24 23 22 21 21 22 21
17 16 15 15 15 15 14 14 14 14 14 15 16 16 15 15 14 13 14 14 15 15 15 15 15 16 17 18 18 17 18 20 22 23 23 23 22 20 18 18 17 17 17
14 13 13 13 14 14 14 14 14 14 14 14 16 17 17 16 15 14 14 15 16 16 16 17 17 18 18 19 19 18 18 19 21 21 21 20 19 17 15 14 14 13 13
13 12 12 12 13 14 15 15 15 15 14 14 16 17 18 17 16 16 16 17 18 18 18 18 18 19 20 20 20 19 19 19 20 20 19 18 17 15 14 13 13 13 14
13 12 12 12 13 15 16 16 16 15 14 14 16 17 19 19 18 18 18 19 20 20 19 19 19 20 20 21 22 21 21 20 21 21 21 19 18 17 16 16 17 17 17
12 12 12 13 14 15 16 17 17 17 16 15 15 17 20 21 21 21 21 22 22 21 20 19 19 20 20 21 22 23 24 24 24 24 24 24 23 22 21 21 22 22 22
13 13 12 13 14 14 15 16 17 17 16 16 16 17 19 21 23 23 23 23 23 21 20 19 20 21 22 23 24 25 27 28 29 29 29 29 29 29 28 28 28 28 28
14 13 13 13 14 15 15 16 17 18 18 17 17 18 18 19 21 22 23 23 23 22 22 22 24 25 26 27 28 28 30 32 33 34 34 34 34 34 34 34 34 34 34
15 14 13 13 14 15 16 16 17 18 19 20 20 20 20 20 21 21 22 23 24 25 26 27 29 30 32 33 33 34 35 36 37 38 38 38 38 38 39 39 39 39 39
15 14 14 14 14 15 16 17 18 20 21 22 23 23 23 24 24 24 24 25 26 28 29 31 33 35 36 37 38 38 39 40 41 42 42 42 41 41 41 42 42 42 43
15 15 14 14 14 15 16 17 18 20 22 23 24 25 26 27 27 27 27 28 29 30 32 34 37 38 40 41 41 42 42 43 44 45 45 45 44 44 43 43 43 44 44
17 16 16 15 15 16 16 17 19 20 22 24 25 26 27 28 28 29 29 30 31 33 35 37 39 41 42 42 43 43 44 44 44 45 46 46 46 46 46 45 45 46 46
19 18 17 17 17 17 18 19 20 21 23 24 25 26 27 28 28 30 31 32 34 36 38 40 41 42 42 43 43 43 43 43 44 44 45 46 47 47 48 48 48 48 49
20 19 19 19 19 20 21 22 22 23 23 24 24 24 25 26 28 30 32 34 36 38 40 41 41 41 41 41 41 41 42 42 43 44 44 45 46 46 47 48 49 50 50
22 21 20 21 21 22 23 24 24 24 24 24 24 24 25 27 29 31 34 36 37 39 40 40 39 38 37 38 38 39 39 40 41 43 44 45 46 47 48 49 50 51 52
22 22 21 22 22 24 25 25 25 25 25 25 24 25 27 29 31 33 35 37 37 38 38 38 37 37 37 38 39 40 41 43 45 46 48 49 50 51 52 54 55 55 56
22 22 22 23 24 25 26 27 27 26 26 26 27 28 30 31 33 35 36 36 37 37 38 38 39 39 40 41 42 44 45 47 48 50 52 53 54 54 55 56 57 58 58
23 23 24 25 26 26 27 28 28 28 28 29 30 32 33 35 36 37 37 37 38 38 39 40 41 43 44 45 46 47 49 50 51 52 54 55 57 58 58 59 60 61 61
24 25 25 26 27 27 27 28 29 30 30 31 33 35 37 38 39 39 39 39 40 41 41 42 44 45 47 48 49 50 51 52 54 56 57 59 60 61 63 64 65 65 65
26 26 27 27 26 26 27 28 29 30 32 34 36 37 39 40 40 41 41 41 42 43 43 45 46 47 49 51 52 53 55 56 58 60 62 64 66 67 68 70 71 71 72
27 27 27 26 25 25 26 28 30 32 34 36 37 38 39 40 41 41 42 42 43 44 45 46 48 49 51 54 57 59 60 61 63 65 67 68 70 72 73 74 75 76 77
27 27 26 25 25 26 28 29 31 33 35 36 37 38 40 41 41 42 43 44 44 46 47 49 51 54 56 59 62 66 68 70 70 69 71 73 74 75 76 78 79 80 82
26 26 25 25 26 28 29 31 33 34 35 36 38 39 40 41 42 43 44 45 46 48 50 53 56 59 62 65 67 70 74 77 79 79 79 80 81 81 81 82 83 85 87
26 26 27 27 29 30 31 33 34 35 36 37 39 40 41 42 43 44 46 47 49 52 55 59 62 66 69 72 74 76 78 80 82 85 86 86 87 87 88 88 90 91 92
28 28 28 29 30 31 33 34 34 36 37 39 40 41 43 44 45 47 49 51 54 58 61 65 68 71 73 76 78 81 83 85 86 88 89 89 90 91 92 94 95 97 98
Wind_Direction
261 262 266 269 274 276 274 267 261 258 252 248 250 249 249 249 248 248 250 254 257 261 268 274 281 288 294 296 298 300 304 307 308 308 305 300 295 289 282 277 276 277 280
261 264 267 271 277 277 274 269 265 262 256 251 250 249 250 252 252 252 253 256 258 262 268 274 281 288 293 296 298 302 308 312 314 314 311 307 300 294 287 281 279 280 282
263 267 271 275 277 276 274 271 269 268 263 255 249 248 249 252 253 254 256 258 260 262 268 275 281 287 290 292 295 300 308 314 318 320 318 313 307 300 294 289 285 284 286
263 269 272 275 277 277 275 274 274 275 269 257 248 246 248 252 255 257 260 264 266 267 271 278 283 287 288 288 291 297 305 312 316 321 322 320 314 308 302 296 291 290 291
260 267 273 276 277 279 279 277 276 276 272 259 250 247 249 253 257 261 267 272 273 273 274 279 284 287 287 286 288 292 298 305 310 314 317 318 316 310 304 298 294 292 292
258 266 272 276 278 280 281 279 277 277 275 265 255 253 254 257 262 267 272 276 277 276 277 280 284 288 288 286 286 288 292 297 300 303 306 307 306 304 300 296 293 290 290
256 265 270 275 278 281 281 279 278 277 276 271 265 262 261 263 267 271 275 278 280 282 284 285 288 290 288 286 285 285 287 290 292 294 295 296 296 295 294 293 292 291 291
252 261 267 274 280 282 282 279 277 276 277 276 274 271 270 270 271 274 276 279 282 285 286 287 288 289 288 287 285 284 284 286 287 288 289 290 290 291 290 289 289 288 288
248 257 266 275 281 283 283 281 278 276 276 278 278 277 276 277 276 276 277 279 281 283 285 286 287 288 288 287 286 284 283 284 285 287 287 288 288 288 288 287 286 285 284
247 254 266 276 281 282 283 282 280 277 275 276 277 278 278 278 278 278 278 280 282 284 285 286 287 288 289 288 287 284 282 282 284 285 286 287 287 286 285 284 284 283 282
245 254 264 273 279 281 282 282 281 279 277 276 275 276 277 278 278 278 279 281 283 284 286 287 288 289 289 288 287 286 284 283 284 285 286 286 286 285 284 283 281 280 280
246 253 260 268 276 280 283 284 283 281 280 278 277 276 276 277 278 279 280 282 283 284 285 287 288 288 288 288 286 285 284 283 283 283 284 285 285 284 283 282 281 279 278
243 249 256 265 274 282 286 289 289 287 284 281 279 277 277 277 278 279 280 282 283 285 286 286 287 288 287 287 287 286 284 282 282 282 283 283 283 282 282 281 279 279 279
240 246 254 264 273 282 288 291 291 289 287 285 283 281 280 280 281 282 282 283 284 286 287 287 288 288 287 287 287 286 284 283 282 282 282 282 282 282 281 281 280 279 279
240 246 253 263 273 282 288 290 291 290 290 289 288 287 285 285 285 284 284 284 285 286 287 289 289 289 288 287 287 286 285 285 284 284 283 284 284 284 283 283 283 283 282
241 247 255 265 275 282 285 288 290 290 291 290 290 289 288 287 286 286 285 286 287 288 289 290 290 290 290 290 289 288 288 287 286 286 285 285 285 285 285 284 284 284 283
242 250 258 268 276 282 284 286 287 287 288 287 286 286 286 287 288 288 289 290 291 292 292 292 292 291 291 290 289 289 289 289 289 288 288 288 287 287 287 286 285 284 283
245 254 263 271 277 281 283 282 282 283 283 284 285 286 288 290 292 293 293 293 294 294 294 294 293 293 292 292 291 291 291 291 291 291 291 290 290 289 289 288 287 285 284
252 260 267 272 276 278 280 280 280 280 281 283 286 289 292 294 295 295 295 295 294 294 294 294 294 294 294 294 294 294 294 294 294 294 293 293 292 291 290 289 287 287 286
258 265 271 274 275 277 278 279 279 280 283 286 288 291 294 295 296 296 296 296 296 296 296 296 297 297 297 297 297 297 297 297 297 296 295 294 293 292 291 290 288 287 286
262 268 271 274 276 277 278 279 281 283 285 288 290 292 294 295 296 297 298 299 300 300 300 300 300 300 300 300 300 300 299 299 298 297 296 294 293 292 290 289 288 287 285
264 269 271 273 275 277 278 280 282 284 287 289 291 293 295 296 298 299 301 301 301 301 301 301 301 301 301 301 301 300 299 297 296 296 294 293 291 290 289 288 287 285 284
265 268 269 271 274 276 278 281 284 286 288 290 292 294 295 297 299 300 301 301 301 301 301 301 301 301 301 301 301 300 299 298 296 294 293 291 290 289 288 287 286 284 283
265 266 268 270 273 276 280 283 285 287 289 291 293 295 296 298 299 299 299 300 300 300 301 301 302 302 302 302 301 301 300 300 299 297 296 294 292 291 289 288 286 285 283
266 267 270 272 276 279 282 284 286 289 291 292 294 295 296 297 297 297 297 298 299 300 302 303 304 304 304 303 302 301 300 299 298 297 297 295 294 293 292 290 289 287 286
268 270 273 276 278 281 283 286 288 290 292 293 293 294 294 295 295 296 298 299 301 302 304 304 305 304 304 303 303 302 301 300 298 297 296 295 294 293 292 291 290 288 286
Height
5864 5863 5863 5863 5862 5862 5862 5861 5861 5861 5860 5860 5860 5860 5860 5859 5859 5859 5859 5858 5857 5856 5856 5855 5854 5853 5851 5850 5849 5848 5847 5845 5844 5842 5839 5837 5835 5833 5831 5830 5829 5828 5827
5862 5861 5861 5861 5860 5860 5859 5859 5858 5858 5857 5857 5858 5858 5857 5857 5857 5856 5856 5855 5855 5854 5853 5852 5852 5850 5849 5848 5847 5846 5844 5843 5841 5838 5836 5833 5831 5829 5827 5826 5825 5824 5824
5860 5859 5859 5859 5858 5858 5857 5857 5856 5855 5855 5855 5855 5855 5855 5855 5854 5854 5853 5853 5852 5851 5851 5850 5849 5848 5847 5845 5844 5843 5842 5840 5838 5835 5833 5830 5828 5826 5824 5823 5822 5821 5820
5858 5857 5857 5857 5856 5856 5855 5855 5854 5853 5852 5852 5852 5852 5852 5852 5852 5851 5851 5850 5849 5849 5848 5847 5846 5845 5844 5843 5842 5840 5839 5837 5835 5832 5830 5827 5825 5823 5822 5821 5820 5818 5817
5856 5855 5855 5855 5854 5854 5853 5852 5852 5851 5850 5849 5849 5849 5849 5849 5849 5849 5848 5848 5847 5846 5845 5844 5843 5842 5841 5840 5839 5837 5836 5834 5832 5829 5827 5825 5823 5822 5820 5819 5817 5816 5815
5853 5853 5853 5853 5852 5851 5851 5850 5850 5849 5848 5847 5847 5846 5847 5847 5847 5846 5845 5845 5844 5843 5842 5841 5840 5839 5838 5836 5835 5833 5832 5830 5829 5827 5825 5823 5821 5820 5818 5816 5815 5813 5812
5851 5851 5851 5850 5850 5849 5848 5848 5847 5847 5846 5845 5844 5844 5844 5843 5843 5843 5842 5842 5841 5840 5838 5837 5836 5835 5834 5832 5831 5829 5828 5826 5825 5824 5822 5820 5819 5817 5815 5813 5812 5810 5808
5848 5848 5848 5848 5847 5847 5846 5846 5845 5844 5843 5842 5841 5840 5840 5840 5839 5839 5838 5838 5837 5836 5834 5833 5832 5831 5829 5828 5826 5825 5823 5822 5820 5819 5818 5816 5815 5813 5811 5809 5807 5805 5804
5845 5845 5845 5845 5845 5844 5843 5843 5842 5841 5840 5839 5838 5837 5837 5836 5835 5835 5834 5833 5833 5832 5830 5829 5828 5826 5825 5823 5821 5820 5818 5816 5814 5813 5811 5810 5808 5807 5805 5803 5801 5800 5798
5842 5843 5843 5843 5842 5841 5840 5840 5839 5838 5837 5836 5835 5834 5833 5833 5832 5831 5830 5829 5828 5827 5826 5824 5823 5821 5819 5817 5816 5814 5812 5809 5807 5806 5804 5802 5801 5799 5797 5795 5793 5791 5790
5839 5840 5840 5840 5839 5838 5837 5836 5835 5834 5833 5832 5831 5830 5829 5829 5828 5827 5826 5825 5824 5823 5821 5819 5817 5815 5813 5811 5809 5806 5804 5802 5800 5798 5796 5794 5792 5790 5788 5786 5784 5782 5780
5836 5837 5837 5836 5835 5835 5834 5832 5831 5830 5829 5828 5826 5826 5825 5824 5823 5822 5821 5820 5819 5817 5815 5813 5811 5808 5805 5803 5800 5798 5796 5794 5791 5789 5787 5785 5782 5780 5778 5776 5773 5771 5769
5832 5833 5833 5833 5832 5831 5830 5829 5827 5826 5824 5823 5821 5820 5819 5819 5818 5817 5816 5814 5812 5810 5808 5806 5803 5800 5797 5794 5791 5789 5786 5784 5782 5780 5778 5775 5772 5770 5767 5765 5763 5760 5758
5828 5829 5829 5829 5828 5827 5826 5825 5823 5822 5820 5818 5817 5815 5814 5814 5813 5812 5810 5808 5805 5803 5800 5797 5794 5791 5788 5785 5782 5779 5777 5774 5772 5770 5768 5765 5762 5759 5757 5754 5752 5750 5747
5824 5825 5825 5825 5824 5823 5822 5821 5819 5817 5815 5814 5812 5811 5809 5808 5807 5805 5803 5800 5797 5795 5792 5789 5785 5782 5779 5776 5773 5771 5768 5766 5763 5760 5758 5755 5752 5749 5747 5744 5741 5739 5736
5820 5821 5821 5821 5820 5819 5817 5816 5815 5813 5811 5809 5808 5806 5804 5802 5800 5798 5795 5792 5789 5786 5783 5780 5777 5774 5771 5768 5765 5762 5760 5758 5755 5751 5749 5746 5743 5740 5736 5733 5730 5727 5724
5816 5817 5817 5816 5815 5814 5812 5811 5810 5808 5806 5805 5803 5801 5799 5796 5794 5791 5788 5784 5781 5778 5775 5772 5769 5766 5763 5760 5758 5755 5752 5749 5746 5743 5739 5736 5733 5730 5726 5722 5719 5716 5713
5812 5812 5812 5812 5810 5808 5807 5805 5804 5803 5801 5799 5797 5795 5792 5790 5787 5784 5781 5777 5774 5770 5767 5764 5761 5758 5755 5752 5750 5747 5743 5740 5737 5733 5729 5725 5721 5718 5714 5710 5706 5702 5699
5807 5807 5807 5806 5805 5803 5801 5800 5798 5797 5795 5793 5791 5788 5786 5783 5780 5777 5774 5770 5767 5763 5760 5756 5753 5750 5746 5743 5740 5737 5733 5730 5726 5722 5717 5713 5708 5704 5700 5696 5692 5688 5684
5802 5802 5801 5800 5799 5797 5795 5794 5792 5791 5789 5787 5784 5781 5778 5775 5772 5769 5766 5762 5759 5755 5752 5748 5744 5741 5737 5733 5730 5726 5723 5719 5714 5710 5706 5701 5696 5691 5686 5681 5677 5673 5669
5796 5796 5795 5794 5793 5791 5790 5788 5787 5785 5783 5780 5777 5774 5771 5767 5764 5761 5758 5754 5750 5747 5743 5739 5735 5731 5726 5722 5718 5715 5711 5706 5702 5696 5692 5686 5681 5676 5670 5665 5659 5654 5650
5790 5790 5789 5788 5787 5786 5784 5783 5781 5779 5776 5773 5770 5767 5763 5760 5756 5753 5749 5745 5742 5737 5733 5729 5725 5721 5716 5710 5704 5700 5697 5695 5689 5683 5676 5670 5665 5659 5653 5647 5640 5635 5629
5785 5784 5783 5782 5781 5780 5778 5777 5774 5772 5769 5766 5763 5759 5756 5752 5749 5745 5741 5737 5733 5728 5723 5718 5713 5708 5704 5698 5691 5683 5677 5673 5671 5668 5661 5654 5647 5641 5634 5628 5621 5614 5607
5779 5778 5778 5777 5775 5774 5772 5770 5768 5765 5762 5759 5755 5752 5748 5744 5740 5736 5732 5727 5723 5718 5712 5707 5701 5695 5689 5683 5676 5668 5659 5651 5644 5642 5639 5631 5625 5619 5613 5606 5598 5590 5582
5773 5773 5772 5771 5770 5768 5766 5763 5760 5757 5754 5751 5747 5744 5740 5736 5731 5727 5722 5717 5712 5706 5700 5694 5687 5679 5672 5664 5657 5649 5641 5632 5623 5616 5613 5607 5599 5592 5585 5579 5570 5562 5553
5767 5767 5767 5765 5763 5761 5758 5756 5753 5750 5746 5743 5739 5735 5731 5726 5722 5717 5711 5706 5700 5694 5687 5679 5672 5664 5655 5646 5637 5627 5618 5609 5600 5591 5586 5582 5576 5571 5561 5552 5542 5532 5522